sat.trackr.live / text

‹ back to catalog

STARLINK-4397

NORAD 53205 · 2022-084S

PAYLOAD ACTIVE UNKNOWN

§ Identity

Operator
Country
US
Launch date
2022-07-22
Launch site
AFWTR
Launch vehicle
Mass (kg)
RCS (m²)

Purposes: comms

External: N2YO · Heavens-Above · Gunter

§ Orbital elements

Epoch: 2026-05-25T03:12:51.635808Z

Period
95.64 min
Inclination
97.4463°
Eccentricity
0.0000141
Mean motion
15.05712884 rev/d
Perigee alt
549.2 km
Apogee alt
549.4 km
Semi-major
6,927.5 km
B*
-7.9409e-4
RAAN
206.2175°
Arg perigee
337.7640°
Mean anomaly
22.3581°
Rev number
21,088

§ Raw data

STARLINK-43971 53205U 22084S   26145.13393097 -.00011517  00000+0 -79409-3 0  99922 53205  97.4463 206.2175 0000141 337.7640  22.3581 15.05712884210880

JSON: /api/v1/satellites/53205 · /tle

For live sub-satellite position, see the globe view (requires WebGL).

§ Visibility from observer

Set your observer location to see the next 7 days of passes ≥ 10°. The values pass through the URL so the page stays shareable.

No JS? Fill the form by hand. The geolocation button needs JavaScript.